Theta_e
314 311 307 305 302 301 300 300 300 300 300 299 298 298 298 298 298 298 297 296 295 295 296 296 296 295 295 295 295 296 302 301 305 309 308 308 307 304 306 306 306 307 307 308 309 311 308 306 310 310 308 312 312 311
313 310 306 304 301 301 300 300 300 300 301 300 299 297 297 298 298 298 297 296 296 295 295 295 296 295 295 296 295 295 297 299 299 304 305 306 309 304 303 306 303 307 305 306 306 307 306 306 310 311 312 312 312 312
312 309 305 303 301 301 300 300 300 301 300 299 298 298 298 299 298 297 296 295 295 294 295 295 296 295 295 295 295 295 297 298 297 297 298 302 305 307 308 305 305 304 304 305 305 306 304 308 308 309 311 312 313 311
311 307 304 302 301 301 300 301 301 300 299 298 297 297 298 298 297 297 295 295 295 294 294 295 295 294 295 296 296 295 295 296 297 296 297 298 301 301 306 304 306 306 305 305 303 304 306 308 310 310 310 312 312 312
309 305 302 302 301 300 301 301 300 299 298 298 297 297 297 297 296 295 295 295 294 294 294 295 296 295 295 295 295 295 296 296 296 295 295 297 297 298 297 298 301 303 303 305 306 304 303 305 307 309 308 310 311 312
307 303 302 302 300 300 301 300 299 299 298 297 297 297 297 296 295 296 296 295 294 294 294 291 296 296 296 296 295 294 295 295 295 295 294 295 295 297 295 296 298 299 301 300 300 297 298 299 305 309 310 309 311 310
304 303 302 301 300 301 300 299 299 298 297 297 298 297 296 296 296 295 294 294 294 294 294 292 293 296 297 297 295 295 294 294 294 294 294 294 294 296 295 297 296 297 297 296 295 296 296 298 304 307 308 309 310 310
303 302 302 301 301 300 300 299 298 297 297 298 298 297 297 296 297 296 296 295 295 295 294 285 289 296 297 297 297 294 294 294 295 294 294 294 294 293 294 294 295 296 297 298 298 297 297 298 300 306 308 307 308 308
303 302 301 301 301 300 299 298 297 296 298 298 298 298 299 298 297 297 297 297 296 296 295 293 290 292 297 298 297 295 294 294 294 293 294 294 294 295 296 296 297 298 298 298 298 299 298 301 302 304 305 306 306 306
302 302 301 301 300 300 298 297 296 297 297 298 298 298 297 297 297 297 297 295 296 297 296 295 294 292 296 297 297 296 294 295 291 294 294 295 295 295 300 298 297 297 299 299 298 299 300 300 300 302 302 304 304 304
302 301 301 301 300 299 298 296 296 296 296 297 297 298 297 297 297 296 296 296 296 294 296 295 295 294 295 297 298 298 297 295 296 295 296 296 301 301 298 296 296 297 297 299 299 298 298 298 300 301 303 302 303 303
302 301 300 300 299 298 297 296 296 296 296 296 297 297 296 297 296 288 284 292 291 291 296 296 296 295 295 297 297 299 299 299 299 295 298 302 300 298 296 296 296 296 296 297 298 298 298 299 299 300 301 301 301 302
301 301 300 300 299 298 297 296 295 296 296 297 297 297 296 293 287 284 286 286 287 295 296 294 292 294 295 296 297 300 300 302 298 300 303 301 299 297 296 296 296 296 296 296 296 298 298 298 298 298 299 299 298 299
301 300 300 298 298 297 297 296 295 295 296 297 295 287 286 284 284 285 286 286 296 296 294 293 292 293 295 294 298 300 301 303 302 300 300 295 298 297 296 297 296 296 295 295 295 295 296 297 296 294 294 293 293 293
300 300 298 298 297 297 296 295 295 295 296 296 295 288 284 292 294 295 296 295 294 294 294 293 293 294 295 296 295 299 301 294 299 298 296 298 297 295 293 292 296 296 294 293 294 294 294 295 294 291 290 289 289 291
300 299 298 297 297 297 295 294 295 295 295 296 294 288 291 292 291 293 294 295 294 294 293 294 290 293 295 295 296 297 292 290 292 291 299 297 295 294 292 290 291 297 295 291 292 293 293 293 292 288 287 288 288 288
299 299 298 298 297 296 295 295 295 295 295 295 294 294 294 295 295 295 294 294 294 294 287 290 285 289 292 293 294 296 290 289 299 298 295 293 292 290 290 289 291 295 296 293 291 293 293 292 293 294 291 287 287 288
299 299 298 297 297 296 294 294 294 295 295 294 294 295 294 294 294 294 294 294 294 293 292 285 290 291 288 287 288 290 298 298 297 294 292 292 292 291 290 290 293 296 296 295 295 293 292 290 291 289 288 287 287 287
298 297 297 297 296 294 294 294 295 294 293 294 294 295 294 294 293 293 292 293 293 293 292 290 290 290 287 290 291 294 295 295 293 292 292 293 292 291 290 289 293 295 294 295 295 294 294 291 287 287 286 286 286 287
297 298 298 297 294 294 294 294 295 294 294 294 293 293 292 292 292 292 291 291 291 291 290 290 288 290 292 293 292 292 293 292 292 290 292 292 292 292 292 290 289 290 293 294 295 295 294 294 292 288 286 287 287 287
297 298 297 295 293 293 293 294 293 293 294 292 291 291 291 290 291 290 290 291 290 290 289 290 291 291 291 291 291 291 291 291 291 289 291 291 291 291 292 292 291 290 291 292 293 294 294 295 295 290 287 287 287 287
297 297 296 294 293 292 292 292 292 292 291 290 290 290 290 289 289 288 288 288 288 291 291 291 291 291 291 291 291 291 291 289 290 291 290 290 289 289 290 291 291 292 291 290 291 292 293 294 294 295 292 287 287 287
295 294 293 293 293 292 289 290 291 289 286 287 287 285 287 287 286 285 285 287 290 291 291 291 291 290 290 290 290 290 291 290 289 288 288 288 288 288 288 289 289 290 291 292 292 292 292 293 293 294 291 287 286 286
294 293 293 292 292 286 288 288 288 287 286 284 282 282 280 284 282 282 280 289 291 291 290 290 290 290 290 291 290 291 290 289 289 289 289 288 288 288 288 288 288 288 288 290 291 292 292 292 292 293 292 287 286 286
292 291 292 288 289 288 283 285 285 285 285 276 282 281 280 282 276 274 280 289 290 290 290 290 291 290 290 290 290 291 289 289 289 289 289 289 289 289 289 288 288 288 288 288 290 291 291 292 290 289 288 287 286 286
286 291 289 289 287 286 284 284 284 283 278 275 279 281 281 276 281 281 281 290 290 290 291 291 290 290 290 290 290 291 290 289 289 290 291 290 289 289 289 288 288 289 289 288 288 289 290 290 290 288 287 287 286 286
285 287 290 290 290 289 285 284 284 280 275 280 276 276 274 279 279 282 290 290 291 291 291 290 290 290 290 290 289 290 290 290 290 290 290 289 289 289 288 288 288 289 289 288 288 288 288 289 290 289 289 288 288 287
290 290 288 289 289 288 283 281 278 279 280 285 283 277 279 280 283 290 290 290 290 290 290 290 290 289 289 289 289 289 289 289 289 289 289 289 289 289 288 288 289 289 289 289 288 288 288 288 288 289 289 288 288 287
290 289 289 286 286 287 288 284 283 288 289 287 282 280 284 289 290 290 290 290 290 289 289 289 289 288 288 288 288 288 287 288 288 288 288 287 288 289 288 288 289 290 290 288 287 287 287 287 287 288 289 288 288 287
289 288 287 284 282 283 289 289 290 290 289 289 289 289 289 289 290 290 289 289 288 288 288 287 287 287 287 287 287 287 287 287 287 287 286 286 287 287 287 288 289 289 288 287 287 288 287 287 287 287 287 287 286 286
288 288 287 286 284 288 289 289 289 289 289 289 289 288 289 289 289 288 288 288 288 288 287 287 287 287 287 286 286 286 287 287 287 287 286 286 286 286 286 286 287 287 287 287 287 287 287 287 286 285 284 284 283 283
288 287 286 283 285 288 288 288 288 288 288 288 288 288 287 287 286 287 288 288 288 288 287 287 286 287 287 287 286 285 285 285 286 286 286 285 285 286 286 286 286 286 286 286 286 285 284 284 284 284 283 282 282 282
284 285 285 285 285 286 286 286 286 285 284 286 287 286 285 285 285 287 288 288 287 287 287 287 287 284 284 284 284 284 284 284 285 286 285 284 284 285 285 285 285 285 285 284 283 283 283 282 282 281 281 281 281 281
Wind_Speed
35 30 27 24 23 20 16 11 7 6 5 6 8 8 9 10 11 11 10 11 9 2 4 4 3 4 4 1 0 5 2 4 4 1 0 1 2 2 1 3 5 6 5 3 3 3 7 3 2 4 5 7 9 12
35 33 28 25 25 22 18 12 10 6 4 2 4 5 7 8 9 12 8 8 6 2 2 2 5 7 10 4 2 3 4 2 4 2 2 2 2 2 0 2 2 2 5 4 7 5 5 5 10 9 10 11 8 7
37 33 30 27 26 24 19 14 9 5 5 3 2 3 4 6 8 11 6 6 6 3 5 3 3 5 5 5 3 2 1 3 4 6 2 2 3 2 2 3 2 3 1 3 1 5 10 21 20 15 14 11 8 5
40 34 32 29 28 24 19 14 9 7 5 3 3 2 2 5 8 6 5 8 6 2 3 1 5 5 8 3 3 7 6 2 2 4 1 0 2 5 2 3 2 4 4 3 6 7 13 16 14 15 15 13 10 6
39 37 34 31 29 24 18 14 10 8 5 3 3 3 4 6 5 5 6 10 8 2 2 0 2 5 6 4 3 1 9 6 2 1 1 2 3 3 2 2 4 5 5 3 5 7 9 17 17 23 18 20 14 12
41 39 35 33 29 24 19 14 12 8 6 4 5 5 6 8 7 5 3 5 8 4 0 1 1 1 5 4 3 0 2 2 1 2 2 3 3 2 1 3 9 11 8 7 7 23 26 30 30 26 23 18 15 12
43 41 37 34 29 24 20 16 13 9 6 7 9 11 11 10 10 7 4 5 7 2 3 3 4 2 5 3 2 2 3 0 1 1 2 2 3 2 2 3 6 10 23 26 25 23 20 23 19 22 19 17 16 14
45 42 38 34 30 25 21 17 14 10 9 12 14 14 13 11 12 11 9 6 2 3 3 2 3 3 6 3 1 2 4 3 2 2 2 3 2 2 3 11 21 24 27 26 20 18 18 25 30 22 15 17 16 13
47 43 39 36 31 26 23 20 14 13 16 16 15 14 12 7 5 5 5 7 8 5 3 3 2 3 8 4 3 1 2 2 2 2 3 3 1 3 5 18 27 28 23 26 30 18 21 16 18 15 17 14 11 10
46 43 40 36 31 27 24 21 15 16 19 15 12 6 5 4 4 3 3 5 6 6 5 3 3 3 8 5 3 1 2 1 2 3 5 2 2 13 17 25 24 24 22 19 17 22 24 24 12 13 11 6 8 7
45 42 39 35 31 28 24 21 16 17 19 10 5 5 9 6 3 4 3 5 6 4 5 5 3 4 5 3 3 3 2 2 2 3 3 2 2 13 29 26 24 22 19 16 16 17 14 11 9 6 4 7 5 5
44 42 38 34 31 27 23 19 16 13 9 10 10 13 6 3 3 5 1 2 3 2 4 3 6 7 6 5 4 3 3 1 4 8 2 1 1 20 26 26 24 22 19 15 14 11 7 1 3 5 5 4 3 2
43 40 35 33 29 26 22 18 15 13 15 14 5 4 2 3 7 5 1 4 3 3 3 8 7 5 4 4 6 2 3 3 8 1 2 3 6 20 25 23 22 21 18 15 12 10 9 3 2 2 0 2 3 4
41 36 33 31 27 24 20 17 16 18 6 4 4 4 3 3 1 4 4 4 2 2 8 8 3 2 3 3 3 4 3 3 2 1 4 2 10 20 22 22 20 19 17 15 12 9 7 4 1 4 4 4 4 4
38 36 32 27 24 20 18 16 13 10 4 4 3 2 2 4 3 6 6 4 2 2 7 3 1 1 2 2 2 4 3 3 2 3 2 10 21 21 22 22 19 16 14 14 12 10 7 5 2 3 4 5 5 4
39 34 31 28 22 19 17 15 12 6 5 4 4 5 5 4 3 4 4 3 3 2 3 3 2 1 2 1 3 5 3 5 4 3 8 19 26 27 26 22 18 16 13 12 13 11 7 5 4 5 4 6 5 5
42 31 33 28 24 21 19 14 6 4 4 4 3 8 6 5 6 5 5 5 3 1 2 4 2 7 2 2 4 4 4 3 4 11 21 26 29 30 26 22 17 13 14 12 14 14 12 10 9 9 4 7 7 6
28 34 32 28 24 19 14 5 4 4 3 4 5 9 7 6 6 4 4 5 4 4 4 3 1 3 5 5 4 4 7 10 12 21 25 26 27 25 21 20 17 12 14 13 12 8 3 7 6 4 7 8 8 7
32 34 29 25 21 9 5 3 3 4 3 5 8 11 6 5 5 3 5 5 6 5 2 2 3 3 4 9 10 13 13 13 21 25 22 19 21 22 21 19 16 12 12 12 11 12 13 10 10 9 9 9 8 7
34 30 27 23 13 4 5 5 4 4 3 6 6 7 4 4 7 6 6 7 8 3 3 4 6 9 20 30 27 25 22 22 23 23 19 16 18 22 18 18 16 15 15 13 11 11 13 13 11 8 9 9 9 7
34 27 24 18 8 6 5 5 3 4 4 3 4 5 3 6 6 7 6 14 7 6 9 16 25 29 28 29 28 28 29 24 21 18 18 19 17 19 18 16 16 15 16 16 15 12 12 13 11 10 10 10 9 8
34 27 23 9 4 4 5 4 4 6 2 2 1 3 3 3 4 4 8 6 8 16 23 29 32 30 32 32 32 23 21 18 14 12 12 15 18 19 19 18 19 19 17 15 16 16 15 13 13 14 11 11 11 9
27 21 8 4 4 4 3 6 2 1 2 2 1 2 3 3 5 5 5 8 13 26 28 30 33 33 33 33 32 28 19 12 9 10 12 15 16 16 19 19 19 20 20 16 13 15 16 14 15 15 15 14 13 11
16 5 4 4 4 4 5 3 2 2 1 1 1 3 3 3 3 3 3 10 27 27 24 19 19 23 24 25 21 18 14 5 9 14 15 17 18 18 19 21 21 20 19 18 16 15 12 12 13 14 16 16 14 13
6 3 3 4 4 5 3 2 2 2 3 3 3 4 1 3 1 3 4 13 15 12 2 12 20 27 27 26 24 17 17 15 17 21 25 25 26 28 27 25 25 23 21 19 16 14 12 12 14 14 15 16 16 15
5 2 3 7 4 4 5 4 4 5 3 2 5 1 2 3 1 6 5 11 15 11 10 13 23 28 29 28 23 21 23 19 24 30 35 34 33 33 34 33 33 29 22 20 18 17 15 13 14 15 15 16 17 17
4 3 4 6 7 8 5 3 4 3 3 5 3 3 3 2 6 6 11 16 16 14 15 27 34 37 35 33 30 25 27 31 36 40 41 42 39 34 33 32 32 28 23 22 21 21 21 20 18 17 17 18 19 19
3 7 6 10 4 5 5 4 5 6 4 6 8 4 6 8 5 6 14 21 32 37 42 47 47 47 47 43 37 36 37 39 42 44 44 42 37 32 29 27 23 22 24 24 22 22 23 23 24 23 22 22 21 21
4 9 10 5 3 5 9 10 10 9 8 13 8 4 9 24 33 37 43 45 49 51 50 49 48 44 42 38 37 37 35 34 33 39 39 36 32 31 24 22 21 22 24 24 22 22 22 23 23 24 24 24 23 22
6 13 6 7 7 6 8 13 10 14 15 18 22 26 33 41 44 43 45 45 46 44 41 38 34 31 32 32 31 30 26 25 25 28 31 30 24 17 18 20 20 21 22 22 21 19 20 20 20 19 19 19 20 21
9 14 4 6 6 5 13 16 19 23 26 29 29 30 38 39 42 42 40 39 27 24 25 26 26 27 29 29 27 28 29 23 21 21 21 22 19 17 19 21 21 22 22 21 20 17 16 16 16 16 15 16 17 18
8 9 7 3 5 6 9 9 10 10 13 18 23 26 24 20 16 31 22 19 22 23 22 23 24 26 27 29 28 28 29 29 27 25 25 25 24 22 22 21 21 21 21 19 17 16 16 15 15 15 15 16 17 17
5 5 5 3 3 3 5 4 4 6 6 7 14 18 15 8 9 9 16 16 17 21 23 24 28 26 21 21 23 23 23 24 23 21 22 22 21 20 19 18 17 16 15 13 11 10 9 10 11 12 13 13 14 13
Wind_Direction
188 191 190 185 181 183 184 173 155 116 92 45 30 31 43 37 23 17 16 9 22 23 80 95 39 357 317 272 278 340 357 8 357 92 235 186 250 261 178 191 179 169 167 197 165 217 266 207 109 173 231 311 311 325
190 189 189 183 181 181 181 167 156 134 137 64 15 44 55 30 16 2 10 347 25 82 53 45 107 62 30 260 286 26 115 343 24 305 25 322 294 336 265 257 37 238 190 187 186 213 244 244 249 257 301 288 308 315
188 187 184 179 179 182 175 170 160 154 140 89 70 81 52 20 360 352 13 11 59 80 97 94 46 342 336 343 206 283 112 125 98 44 9 321 274 326 275 255 302 264 221 239 73 259 250 268 273 276 274 273 292 301
185 183 180 175 180 175 173 166 156 158 131 103 73 53 354 346 343 3 55 45 49 65 95 53 22 40 21 39 242 227 244 198 111 9 11 290 274 15 311 317 281 250 333 289 273 290 294 276 272 284 268 255 253 238
181 180 174 176 176 169 166 158 156 155 127 104 55 17 347 4 15 79 92 50 40 61 152 110 37 33 25 24 31 302 215 221 276 117 89 242 271 335 314 297 246 208 244 217 257 30 340 297 306 317 291 249 239 229
180 175 172 176 170 165 162 157 154 137 118 78 39 43 53 63 76 101 75 26 7 6 50 58 114 8 6 4 341 246 98 149 185 153 259 290 287 284 322 258 267 280 317 332 313 309 313 302 299 302 295 252 228 218
176 172 174 174 166 163 160 155 138 125 98 71 77 77 80 71 50 62 69 348 341 19 12 355 354 322 349 5 54 113 171 185 259 282 250 276 286 270 254 256 276 319 312 314 311 309 294 284 289 292 297 236 207 203
173 172 174 168 164 163 154 143 132 123 109 107 95 83 79 76 69 62 55 35 26 68 42 65 296 358 353 329 50 146 138 163 223 262 254 220 263 244 261 269 292 306 309 306 306 304 275 275 279 279 254 212 199 200
172 171 170 166 164 160 150 139 135 128 122 125 114 99 87 70 64 59 33 42 51 53 74 57 54 295 341 310 300 192 168 135 173 228 240 173 203 232 263 309 310 316 314 301 298 293 281 311 271 237 213 201 212 208
171 171 168 167 165 158 152 139 136 136 130 134 127 96 90 85 85 44 49 33 21 32 36 73 20 305 331 317 309 145 215 211 182 221 152 207 263 279 327 325 326 317 319 306 295 301 307 293 253 219 212 196 219 222
170 170 169 168 164 159 151 144 136 146 143 144 120 93 123 120 86 64 64 47 347 30 20 16 339 315 316 297 308 273 243 197 205 203 176 210 227 332 337 335 337 329 317 321 306 299 312 304 259 255 230 227 223 221
170 169 169 167 163 159 152 147 138 153 151 138 125 120 121 104 79 84 6 341 63 247 352 359 326 305 306 303 289 301 294 226 278 135 176 167 329 339 340 345 344 341 336 326 323 325 333 27 173 198 201 208 223 212
169 168 168 166 162 157 155 148 141 138 134 124 105 102 115 46 43 92 0 324 6 336 16 345 336 333 318 294 279 274 280 263 113 202 38 223 306 343 352 349 346 346 343 341 334 320 324 340 88 119 225 283 295 292
166 164 167 163 158 157 155 150 146 150 137 113 127 55 100 328 222 176 166 174 176 281 341 355 339 341 317 321 305 289 293 287 79 238 237 255 329 332 344 350 344 343 344 343 335 330 324 303 43 344 330 339 326 320
159 161 159 156 155 151 152 152 149 152 109 99 104 147 179 137 122 143 152 142 160 307 342 19 323 238 256 286 250 289 288 300 272 253 245 301 317 326 334 335 336 333 331 336 333 328 312 269 209 325 323 326 329 334
156 152 159 154 155 153 152 146 141 121 93 100 112 98 133 122 147 169 170 156 155 353 27 106 68 323 267 311 259 237 159 229 246 226 295 317 318 320 321 321 320 320 314 309 318 324 314 298 214 307 329 329 324 321
160 157 158 156 160 156 148 142 124 95 95 111 121 122 139 108 135 148 147 168 163 94 132 107 88 219 326 250 249 219 214 231 320 315 315 315 316 316 315 312 312 303 298 292 292 307 302 289 265 236 295 325 317 314
160 156 159 160 155 144 133 109 105 101 106 125 140 153 156 140 141 150 170 188 176 150 144 211 92 220 220 205 247 249 240 294 302 314 318 327 327 321 313 308 308 290 300 300 292 283 307 329 340 340 298 294 303 310
158 159 157 155 150 124 107 103 84 99 107 131 147 160 159 163 177 198 191 184 179 167 151 189 243 224 242 228 255 286 304 295 310 314 317 334 334 331 325 305 295 287 292 302 290 278 260 262 274 276 286 291 296 304
148 149 150 154 143 105 97 84 99 99 139 161 170 176 177 177 183 209 201 186 166 162 197 218 224 232 257 286 286 289 293 296 300 303 308 332 341 339 338 328 307 289 289 287 293 280 274 263 250 271 283 284 292 299
143 147 153 151 111 85 92 114 117 124 140 153 203 193 207 220 214 205 188 164 166 213 233 237 265 285 296 304 299 294 284 283 281 279 292 314 331 338 342 338 331 313 299 294 286 288 283 275 262 258 274 279 283 286
144 153 148 139 102 85 87 124 123 138 140 161 175 208 218 215 213 184 164 181 224 245 255 274 286 294 295 301 306 294 292 283 275 275 293 305 315 327 330 335 340 341 329 309 297 288 282 279 276 267 258 265 266 273
142 141 116 99 97 92 100 155 146 119 92 181 216 269 218 192 199 185 226 231 252 271 278 285 294 300 298 297 295 295 271 264 280 295 304 306 310 319 319 323 325 326 333 338 308 292 288 281 276 261 254 254 259 268
132 97 95 97 87 104 132 109 122 120 134 99 95 276 256 193 190 213 245 255 274 285 299 318 317 310 301 297 281 278 230 251 319 319 324 318 320 319 312 312 318 317 318 315 323 313 299 286 275 262 254 251 253 262
104 73 110 76 115 111 93 121 146 187 226 212 193 268 221 166 56 249 232 276 285 291 21 6 3 359 343 308 288 244 211 239 278 299 320 320 322 324 319 314 313 311 309 311 305 305 301 287 279 270 257 251 252 261
89 124 116 156 149 139 163 151 197 202 169 214 232 251 145 93 170 251 236 272 282 256 259 323 332 328 323 324 311 253 232 261 287 298 306 314 312 310 312 309 310 314 318 309 300 286 284 289 281 272 265 260 260 263
116 153 142 147 148 143 107 118 149 154 160 208 210 137 97 206 243 250 255 270 276 263 279 301 308 305 303 300 292 274 265 270 275 280 287 292 297 297 300 299 300 308 305 294 288 284 276 268 268 269 267 264 263 265
117 155 151 168 131 157 138 161 171 203 227 187 148 187 197 204 236 268 285 293 297 295 294 295 295 296 295 293 290 287 278 273 275 279 283 285 287 290 291 293 293 298 298 296 289 278 273 270 266 262 262 264 266 266
140 155 139 125 131 197 216 193 209 219 211 189 188 220 242 269 281 287 294 298 298 294 293 294 296 299 297 293 289 286 284 281 281 282 283 285 289 287 287 282 288 295 297 295 287 282 279 273 269 263 258 259 262 268
158 164 148 162 174 214 229 205 228 246 250 252 262 271 276 282 291 297 297 299 298 299 302 303 303 301 300 299 299 297 293 289 284 279 283 287 291 282 272 278 288 294 296 296 294 293 278 273 274 273 270 268 266 266
164 182 158 183 232 248 256 266 268 272 274 276 277 271 277 291 296 302 305 306 310 314 310 311 311 310 307 306 304 301 297 292 288 285 284 283 280 274 276 282 288 289 289 289 290 287 280 273 270 270 269 267 267 268
163 174 162 196 269 260 272 271 270 257 270 278 283 283 280 275 277 296 305 312 315 316 318 314 314 313 308 302 297 291 287 286 284 282 279 278 280 280 279 280 283 285 286 286 283 277 271 266 264 266 267 268 271 274
149 181 209 279 269 255 236 251 275 295 274 269 277 275 269 256 256 278 289 298 317 331 329 321 318 315 313 314 310 299 288 280 277 273 268 269 272 275 277 280 281 280 278 275 271 268 264 263 263 265 267 270 274 277